Home   Weather   38°24'S, 63°37'W   Past weeks
Flag for Argentina

Past Weather in 38°24'S, 63°37'W, Argentina — Yesterday and Last 2 Weeks

Now
54 °F

Low clouds.


Feels Like: 50 °F
Forecast: 56 / 45 °F
Wind: 12 mph from Southeast

Location: Mar Del Plata Aerodrome

Current Time: Jun 16, 2019 at 9:55:41 am

Latest Report: Jun 16, 2019 at 8:00 am


Visibility: 5 mi

Pressure: 30.36 "Hg

Humidity: 100%

Dew Point: 54 °F

Location of 38°24'S, 63°37'WLocation

Past Weather in 38°24'S, 63°37'W — Graph

°F

38°24'S, 63°37'W Temperature Yesterday

Maximum temperature yesterday: 55 °F (at 1:00 pm)
Minimum temperature yesterday: 48 °F (at 6:00 am)
Average temperature yesterday: 52 °F

High & Low Weather Summary for the Past Weeks

 TemperatureHumidityPressure
High66 °F (Jun 2, 1:00 pm)100% (Jun 1, 8:00 am)30.36 "Hg (Jun 1, 8:00 am)
Low34 °F (Jun 11, 7:00 am)37% (Jun 3, 3:00 pm)29.74 "Hg (Jun 6, 3:00 pm)
Average53 °F81%30.01 "Hg
* Reported Jun 1 8:00 am — Jun 16 8:00 am, 38°24'S, 63°37'W. Weather by CustomWeather, © 2019

Note: Actual official high and low records may vary slightly from our data, if they occured in-between our weather recording intervals... More about our weather records

Advertising

38°24'S, 63°37'W Weather History for the Previous 24 Hours

Scroll right to see more
 ConditionsComfort  
Time TempWeatherWind HumidityBarometerVisibility
8:00 am
Sun, Jun 16
54 °FLow clouds.12 mph100%30.36 "Hg5 mi
7:00 am52 °FLow clouds.14 mph100%30.33 "HgN/A
6:00 am52 °FLow clouds.10 mph94%30.33 "HgN/A
5:00 am50 °FDrizzle. Low clouds.12 mph100%30.33 "Hg4 mi
3:00 am50 °FDrizzle. Low clouds.10 mph94%30.33 "Hg4 mi
1:00 am50 °FOvercast.10 mph94%30.33 "HgN/A
12:00 am50 °FOvercast.12 mph94%30.33 "HgN/A
11:00 pm
Sat, Jun 15
50 °FOvercast.14 mph94%30.30 "HgN/A
10:00 pm52 °FPassing clouds.15 mph82%30.33 "HgN/A
9:00 pm52 °FPassing clouds.12 mph82%30.30 "HgN/A
8:00 pm54 °FPassing clouds.14 mph77%30.30 "HgN/A
7:00 pm52 °FPartly cloudy.14 mph82%30.27 "HgN/A
6:00 pm54 °FPartly cloudy.12 mph77%30.27 "HgN/A
5:00 pm54 °FBroken clouds.12 mph77%30.24 "HgN/A
4:00 pm55 °FBroken clouds.17 mph77%30.24 "HgN/A
3:00 pm55 °FOvercast.9 mph77%30.24 "HgN/A
2:00 pm55 °FBroken clouds.12 mph77%30.21 "HgN/A
1:00 pm55 °FPartly sunny.14 mph72%30.24 "HgN/A
12:00 pm54 °FSunny.16 mph77%30.24 "Hg10 mi
11:00 am54 °FOvercast.12 mph77%30.27 "HgN/A
10:00 am54 °FPartly sunny.14 mph77%30.21 "HgN/A
9:00 am48 °FSunny.3 mph94%30.15 "Hg10 mi
Weather by CustomWeather, © 2019

See weather overview